Time,TemperatureF,DewpointF,PressureIn,WindDirection,WindDirectionDegrees,WindSpeedMPH,WindSpeedGustMPH,Humidity,HourlyPrecipIn,Conditions,Clouds,dailyrainin,SoftwareType,DateUTC
2013-03-05 00:08:00,26.4,22.0,30.14,East,81,5.0,7.0,82,0.00,,,0.00,weatherlink.com 1.10,2013-03-05 05:08:00,
2013-03-05 00:23:00,25.8,21.0,30.13,East,84,6.0,6.0,82,0.00,,,0.00,weatherlink.com 1.10,2013-03-05 05:23:00,
2013-03-05 00:38:00,25.7,20.0,30.14,ENE,68,2.0,4.0,80,0.00,,,0.00,weatherlink.com 1.10,2013-03-05 05:38:00,
2013-03-05 01:08:00,25.3,20.0,30.14,ENE,68,2.0,4.0,81,0.00,,,0.00,weatherlink.com 1.10,2013-03-05 06:08:00,
2013-03-05 01:23:00,24.9,20.0,30.14,ENE,69,2.0,3.0,82,0.00,,,0.00,weatherlink.com 1.10,2013-03-05 06:23:00,
2013-03-05 01:38:00,24.6,20.0,30.14,ENE,73,1.0,3.0,83,0.00,,,0.00,weatherlink.com 1.10,2013-03-05 06:38:00,
2013-03-05 01:53:00,24.1,20.0,30.14,ENE,61,2.0,4.0,84,0.00,,,0.00,weatherlink.com 1.10,2013-03-05 06:53:00,
2013-03-05 02:08:00,24.3,20.0,30.13,ENE,70,4.0,7.0,83,0.00,,,0.00,weatherlink.com 1.10,2013-03-05 07:08:00,
2013-03-05 02:23:00,24.5,20.0,30.13,East,83,5.0,8.0,82,0.00,,,0.00,weatherlink.com 1.10,2013-03-05 07:23:00,
2013-03-05 02:38:00,24.3,20.0,30.12,East,82,5.0,8.0,82,0.00,,,0.00,weatherlink.com 1.10,2013-03-05 07:38:00,
2013-03-05 02:53:00,24.2,20.0,30.11,ENE,69,4.0,7.0,83,0.00,,,0.00,weatherlink.com 1.10,2013-03-05 07:53:00,
2013-03-05 03:08:00,24.0,20.0,30.11,ENE,71,4.0,7.0,84,0.00,,,0.00,weatherlink.com 1.10,2013-03-05 08:08:00,
2013-03-05 03:23:00,23.9,20.0,30.10,ENE,69,9.0,11.0,85,0.00,,,0.00,weatherlink.com 1.10,2013-03-05 08:23:00,
2013-03-05 03:38:00,23.8,20.0,30.10,East,84,7.0,9.0,86,0.00,,,0.00,weatherlink.com 1.10,2013-03-05 08:38:00,
2013-03-05 03:53:00,23.8,20.0,30.10,East,80,5.0,10.0,86,0.00,,,0.00,weatherlink.com 1.10,2013-03-05 08:53:00,
2013-03-05 04:08:00,23.6,20.0,30.10,ENE,76,5.0,9.0,87,0.00,,,0.00,weatherlink.com 1.10,2013-03-05 09:08:00,
2013-03-05 04:38:00,23.3,20.0,30.09,ENE,64,4.0,9.0,87,0.00,,,0.00,weatherlink.com 1.10,2013-03-05 09:38:00,
2013-03-05 04:53:00,23.4,20.0,30.09,ENE,68,7.0,10.0,87,0.00,,,0.00,weatherlink.com 1.10,2013-03-05 09:53:00,
2013-03-05 05:08:00,23.3,20.0,30.09,ENE,69,4.0,9.0,87,0.00,,,0.00,weatherlink.com 1.10,2013-03-05 10:08:00,
2013-03-05 05:23:00,23.2,20.0,30.09,East,90,3.0,8.0,87,0.00,,,0.00,weatherlink.com 1.10,2013-03-05 10:23:00,
2013-03-05 05:39:00,23.1,20.0,30.09,East,88,6.0,11.0,87,0.00,,,0.00,weatherlink.com 1.10,2013-03-05 10:39:00,
2013-03-05 05:54:00,23.0,20.0,30.09,East,98,5.0,9.0,87,0.00,,,0.00,weatherlink.com 1.10,2013-03-05 10:54:00,
2013-03-05 06:09:00,22.9,20.0,30.08,ENE,76,4.0,10.0,88,0.00,,,0.00,weatherlink.com 1.10,2013-03-05 11:09:00,
2013-03-05 06:24:00,22.9,20.0,30.08,East,82,8.0,10.0,88,0.00,,,0.00,weatherlink.com 1.10,2013-03-05 11:24:00,
2013-03-05 06:39:00,23.1,20.0,30.08,ENE,65,7.0,11.0,88,0.00,,,0.00,weatherlink.com 1.10,2013-03-05 11:39:00,
2013-03-05 06:54:00,23.1,20.0,30.08,East,83,5.0,10.0,88,0.00,,,0.00,weatherlink.com 1.10,2013-03-05 11:54:00,
2013-03-05 07:09:00,23.2,20.0,30.08,East,88,6.0,10.0,88,0.00,,,0.00,weatherlink.com 1.10,2013-03-05 12:09:00,
2013-03-05 07:24:00,23.5,20.0,30.08,ESE,115,7.0,10.0,87,0.00,,,0.00,weatherlink.com 1.10,2013-03-05 12:24:00,
2013-03-05 07:39:00,23.8,21.0,30.07,East,85,11.0,13.0,87,0.00,,,0.00,weatherlink.com 1.10,2013-03-05 12:39:00,
2013-03-05 07:54:00,24.0,20.0,30.07,East,98,10.0,16.0,86,0.00,,,0.00,weatherlink.com 1.10,2013-03-05 12:54:00,
2013-03-05 08:09:00,24.5,21.0,30.06,East,90,11.0,16.0,86,0.00,,,0.00,weatherlink.com 1.10,2013-03-05 13:09:00,
2013-03-05 08:24:00,24.8,21.0,30.06,ENE,68,7.0,16.0,86,0.00,,,0.00,weatherlink.com 1.10,2013-03-05 13:24:00,
2013-03-05 08:39:00,25.2,22.0,30.06,East,80,9.0,13.0,86,0.00,,,0.00,weatherlink.com 1.10,2013-03-05 13:39:00,
2013-03-05 08:54:00,25.3,22.0,30.06,East,97,8.0,15.0,86,0.00,,,0.00,weatherlink.com 1.10,2013-03-05 13:54:00,
2013-03-05 09:09:00,25.5,22.0,30.06,ESE,108,7.0,13.0,85,0.00,,,0.00,weatherlink.com 1.10,2013-03-05 14:09:00,
2013-03-05 09:24:00,25.9,22.0,30.07,ESE,104,10.0,17.0,84,0.00,,,0.00,weatherlink.com 1.10,2013-03-05 14:24:00,
2013-03-05 09:39:00,26.7,23.0,30.06,East,93,10.0,13.0,84,0.00,,,0.00,weatherlink.com 1.10,2013-03-05 14:39:00,
2013-03-05 10:09:00,26.8,23.0,30.05,East,94,6.0,12.0,84,0.00,,,0.00,weatherlink.com 1.10,2013-03-05 15:09:00,
2013-03-05 10:24:00,27.8,23.0,30.05,SE,128,10.0,13.0,82,0.00,,,0.00,weatherlink.com 1.10,2013-03-05 15:24:00,
2013-03-05 10:39:00,27.2,22.0,30.04,ESE,107,9.0,14.0,81,0.00,,,0.00,weatherlink.com 1.10,2013-03-05 15:39:00,
2013-03-05 10:54:00,27.9,23.0,30.04,SE,126,11.0,16.0,82,0.00,,,0.00,weatherlink.com 1.10,2013-03-05 15:54:00,
2013-03-05 11:09:00,27.4,23.0,30.03,East,95,8.0,15.0,83,0.00,,,0.00,weatherlink.com 1.10,2013-03-05 16:09:00,
2013-03-05 11:24:00,27.4,24.0,30.03,East,82,6.0,16.0,85,0.00,,,0.00,weatherlink.com 1.10,2013-03-05 16:24:00,
2013-03-05 11:39:00,28.2,24.0,30.03,SSE,151,9.0,14.0,83,0.00,,,0.00,weatherlink.com 1.10,2013-03-05 16:39:00,
2013-03-05 11:54:00,28.4,24.0,30.02,East,85,6.0,16.0,83,0.00,,,0.00,weatherlink.com 1.10,2013-03-05 16:54:00,
2013-03-05 12:09:00,29.0,24.0,30.01,East,94,13.0,21.0,81,0.00,,,0.00,weatherlink.com 1.10,2013-03-05 17:09:00,
2013-03-05 12:24:00,29.2,24.0,30.00,East,86,9.0,19.0,81,0.00,,,0.00,weatherlink.com 1.10,2013-03-05 17:24:00,
2013-03-05 12:39:00,29.5,24.0,29.99,East,96,14.0,18.0,80,0.00,,,0.00,weatherlink.com 1.10,2013-03-05 17:39:00,
2013-03-05 12:54:00,30.1,25.0,29.98,East,97,13.0,18.0,80,0.00,,,0.00,weatherlink.com 1.10,2013-03-05 17:54:00,
2013-03-05 13:09:00,30.3,25.0,29.97,ENE,57,9.0,18.0,79,0.00,,,0.00,weatherlink.com 1.10,2013-03-05 18:09:00,
2013-03-05 13:24:00,30.5,24.0,29.96,ENE,59,8.0,18.0,78,0.00,,,0.00,weatherlink.com 1.10,2013-03-05 18:24:00,
2013-03-05 13:39:00,32.3,26.0,29.94,ENE,74,12.0,16.0,78,0.00,,,0.00,weatherlink.com 1.10,2013-03-05 18:39:00,
2013-03-05 13:55:00,32.5,26.0,29.93,East,93,11.0,16.0,77,0.00,,,0.00,weatherlink.com 1.10,2013-03-05 18:55:00,
2013-03-05 14:10:00,32.3,26.0,29.93,ENE,73,9.0,23.0,76,0.00,,,0.00,weatherlink.com 1.10,2013-03-05 19:10:00,
2013-03-05 14:25:00,33.0,26.0,29.92,East,98,14.0,16.0,76,0.00,,,0.00,weatherlink.com 1.10,2013-03-05 19:25:00,
2013-03-05 14:40:00,33.1,26.0,29.92,ENE,74,20.0,22.0,75,0.00,,,0.00,weatherlink.com 1.10,2013-03-05 19:40:00,
2013-03-05 14:55:00,33.4,26.0,29.91,East,82,11.0,18.0,75,0.00,,,0.00,weatherlink.com 1.10,2013-03-05 19:55:00,
2013-03-05 15:10:00,33.2,26.0,29.90,East,80,10.0,19.0,74,0.00,,,0.00,weatherlink.com 1.10,2013-03-05 20:10:00,
2013-03-05 15:25:00,32.9,26.0,29.88,East,85,10.0,23.0,75,0.00,,,0.00,weatherlink.com 1.10,2013-03-05 20:25:00,
2013-03-05 15:40:00,33.1,26.0,29.89,ESE,105,16.0,22.0,74,0.00,,,0.00,weatherlink.com 1.10,2013-03-05 20:40:00,
2013-03-05 15:55:00,33.3,26.0,29.88,East,89,10.0,25.0,74,0.00,,,0.00,weatherlink.com 1.10,2013-03-05 20:55:00,
2013-03-05 16:10:00,32.7,25.0,29.87,East,87,18.0,26.0,73,0.00,,,0.00,weatherlink.com 1.10,2013-03-05 21:10:00,
2013-03-05 16:25:00,32.4,25.0,29.86,NE,52,11.0,22.0,74,0.00,,,0.00,weatherlink.com 1.10,2013-03-05 21:25:00,
2013-03-05 16:40:00,32.3,25.0,29.85,ENE,78,18.0,21.0,73,0.00,,,0.00,weatherlink.com 1.10,2013-03-05 21:40:00,
2013-03-05 16:55:00,32.0,25.0,29.85,East,79,17.0,21.0,74,0.00,,,0.00,weatherlink.com 1.10,2013-03-05 21:55:00,
2013-03-05 17:10:00,31.9,25.0,29.84,ENE,68,12.0,23.0,75,0.00,,,0.00,weatherlink.com 1.10,2013-03-05 22:10:00,
2013-03-05 17:25:00,31.7,25.0,29.86,East,92,11.0,21.0,76,0.00,,,0.00,weatherlink.com 1.10,2013-03-05 22:25:00,
2013-03-05 17:40:00,31.5,25.0,29.85,East,88,17.0,23.0,76,0.00,,,0.00,weatherlink.com 1.10,2013-03-05 22:40:00,
2013-03-05 18:10:00,31.4,25.0,29.85,East,83,16.0,21.0,77,0.00,,,0.00,weatherlink.com 1.10,2013-03-05 23:10:00,
2013-03-05 18:40:00,31.4,25.0,29.85,ENE,74,10.0,25.0,77,0.00,,,0.00,weatherlink.com 1.10,2013-03-05 23:40:00,
2013-03-05 18:55:00,31.5,25.0,29.85,East,82,17.0,27.0,77,0.00,,,0.00,weatherlink.com 1.10,2013-03-05 23:55:00,
2013-03-05 19:10:00,31.6,25.0,29.85,ESE,107,12.0,18.0,77,0.00,,,0.00,weatherlink.com 1.10,2013-03-06 00:10:00,
2013-03-05 19:25:00,31.5,25.0,29.84,East,84,10.0,19.0,77,0.00,,,0.00,weatherlink.com 1.10,2013-03-06 00:25:00,
2013-03-05 19:40:00,31.6,25.0,29.84,East,84,11.0,19.0,77,0.00,,,0.00,weatherlink.com 1.10,2013-03-06 00:40:00,
2013-03-05 19:55:00,31.7,25.0,29.83,ENE,57,15.0,22.0,77,0.00,,,0.00,weatherlink.com 1.10,2013-03-06 00:55:00,
2013-03-05 20:10:00,31.9,25.0,29.82,ENE,77,7.0,26.0,76,0.00,,,0.00,weatherlink.com 1.10,2013-03-06 01:10:00,
2013-03-05 20:25:00,31.9,25.0,29.82,ENE,67,15.0,17.0,77,0.00,,,0.00,weatherlink.com 1.10,2013-03-06 01:25:00,
2013-03-05 20:40:00,31.7,26.0,29.82,NE,48,7.0,15.0,79,0.00,,,0.00,weatherlink.com 1.10,2013-03-06 01:40:00,
2013-03-05 20:55:00,31.1,26.0,29.82,NE,38,8.0,18.0,80,0.00,,,0.00,weatherlink.com 1.10,2013-03-06 01:55:00,
2013-03-05 21:10:00,30.8,25.0,29.82,ENE,66,9.0,16.0,80,0.00,,,0.00,weatherlink.com 1.10,2013-03-06 02:10:00,
2013-03-05 21:25:00,30.7,25.0,29.82,NE,53,5.0,15.0,80,0.00,,,0.00,weatherlink.com 1.10,2013-03-06 02:25:00,
2013-03-05 21:40:00,30.7,25.0,29.82,NE,36,8.0,16.0,80,0.00,,,0.00,weatherlink.com 1.10,2013-03-06 02:40:00,
2013-03-05 21:55:00,30.6,25.0,29.82,NE,47,9.0,16.0,80,0.00,,,0.00,weatherlink.com 1.10,2013-03-06 02:55:00,
2013-03-05 22:10:00,30.5,25.0,29.82,NE,46,12.0,16.0,80,0.00,,,0.00,weatherlink.com 1.10,2013-03-06 03:10:00,
2013-03-05 22:25:00,30.4,25.0,29.82,ENE,67,10.0,16.0,80,0.00,,,0.00,weatherlink.com 1.10,2013-03-06 03:25:00,
2013-03-05 22:40:00,30.3,25.0,29.82,NNE,12,5.0,15.0,81,0.00,,,0.00,weatherlink.com 1.10,2013-03-06 03:40:00,
2013-03-05 22:55:00,30.2,25.0,29.83,NE,51,8.0,13.0,81,0.00,,,0.00,weatherlink.com 1.10,2013-03-06 03:55:00,
2013-03-05 23:10:00,30.2,25.0,29.82,NE,52,7.0,14.0,81,0.00,,,0.00,weatherlink.com 1.10,2013-03-06 04:10:00,
2013-03-05 23:25:00,30.1,25.0,29.82,NE,52,6.0,17.0,80,0.00,,,0.00,weatherlink.com 1.10,2013-03-06 04:25:00,
2013-03-05 23:40:00,30.0,24.0,29.82,NE,54,8.0,16.0,79,0.00,,,0.00,weatherlink.com 1.10,2013-03-06 04:40:00,
2013-03-05 23:55:00,29.9,24.0,29.82,NE,43,10.0,12.0,80,0.00,,,0.00,weatherlink.com 1.10,2013-03-06 04:55:00,